Location: Carroll
(32.4774°N, 95.5202°W)
Time: 22:28:57
(UTC+02:00)

Daily predictions for brighter satellites

Satellite Brightness Start Highest point End
(mag) Time Altitude Azimuth Time Altitude Azimuth Time Altitude Azimuth
Landsat 4 3.5 12:02:32 19° S 12:05:09 85° WSW 12:08:54 10° NNW
Cosmos 2221 3.4 12:01:23 10° N 12:05:31 48° E 12:09:37 10° SSE
Timation 2 Rocket 4.3 12:08:34 27° SW 12:12:06 52° WNW 12:18:24 10° N
Cosmos 494 Rocket 4.2 12:07:58 15° S 12:12:11 70° ESE 12:17:16 10° NNE
CZ-4B R/B 3.4 12:07:43 10° NNE 12:13:01 68° ESE 12:18:15 10° S
Cosmos 1340 Rocket 4.0 12:10:47 10° SSE 12:14:33 41° E 12:18:18 10° NNE
USA 267 3.2 12:09:15 10° SE 12:15:46 72° SW 12:22:19 10° NW
CENTAUR R/B 3.8 12:09:23 10° NW 12:16:09 29° WSW 12:23:04 10° SSW
KM-V1 3.9 12:20:27 37° WSW 12:21:27 63° S 12:26:18 10° ESE
Cosmos 972 Rocket 4.2 12:16:13 10° NNW 12:22:19 77° WSW 12:27:42 10° S
BREEZE-M DEB (TANK) 3.8 12:19:51 19° SW 12:26:40 85° NW 12:30:18 10° NE
Cosmos 2100 Rocket 4.2 12:22:14 10° NNW 12:28:04 46° W 12:33:52 10° SSW
MOS 1 Rocket 4.4 12:24:31 10° NNW 12:28:05 24° WNW 12:29:40 20° WSW
Cosmos 2173 Rocket 4.1 12:22:39 10° NNW 12:28:40 51° W 12:34:33 10° SSW
In-Cosmos 22 4.3 12:26:50 16° SSW 12:30:54 49° W 12:36:01 10° N
PAYLOAD B 4.2 12:25:36 10° N 12:31:09 72° WNW 12:36:37 10° SSW
Cosmos 1908 3.9 12:29:37 10° N 12:33:26 57° E 12:37:14 10° SSE
Meteor 2-1 Rocket 4.4 12:30:48 10° NNW 12:36:20 53° W 12:41:58 10° S
Meteor 1-31 Rocket 4.0 12:32:43 10° NNE 12:36:27 42° E 12:40:12 10° S
CZ-4B R/B 3.7 12:37:28 10° N 12:41:38 41° WNW 12:45:39 11° SW
CZ-3A R/B 4.2 12:40:22 13° SW 12:46:22 49° SSE 13:37:11 10° E
EXPRESS MD2 2.4 12:44:22 10° NW 12:48:05 72° SW 12:50:25 10° SE
Cosmos 1864 Rocket 4.4 12:42:44 10° N 12:48:53 76° W 12:55:04 10° S
MTI 3.7 12:45:49 10° S 12:49:03 80° W 12:52:16 10° NNW
Yuri Rocket 4.0 12:44:50 14° WSW 12:49:15 58° S 12:56:17 10° E
CZ-3 R/B 3.1 12:35:44 13° WSW 12:53:33 49° S 12:59:17 10° E
Cosmos 1076 Rocket 4.2 12:53:03 10° SW 12:56:55 34° W 13:00:48 10° NNW
Okean-O 2.8 12:57:37 10° NNE 13:02:04 78° E 13:06:29 10° S
Cosmos 1184 Rocket 3.1 12:59:38 10° SSW 13:02:52 46° W 13:06:07 10° N
CZ-4B R/B 3.7 12:59:30 10° N 13:03:21 85° WNW 13:07:03 10° SSW
Cosmos 2360 4.2 12:58:55 10° NNW 13:04:36 67° WSW 13:10:14 10° S
Cosmos 1697 Rocket 3.5 13:01:54 10° NW 13:06:31 27° WSW 13:11:08 10° SSW
Cosmos 1110 Rocket 4.1 13:01:59 10° NNW 13:07:09 54° WSW 13:12:15 10° S
Aureole 2 4.1 13:04:40 10° NNW 13:07:39 88° E 13:10:53 10° SSE
Cosmos 1328 Rocket 4.2 13:03:37 10° N 13:08:00 62° E 13:12:23 10° SSE
Cosmos 1766 Rocket 4.2 13:05:05 10° SSW 13:09:15 38° W 13:13:27 10° N
Aurora 2 Rocket 3.8 13:06:53 10° SW 13:10:12 21° S 13:12:57 10° ESE
NOAA 6 4.5 13:08:32 10° NNE 13:13:41 70° ESE 13:18:50 10° S
GPS 2-05 Rocket1 3.3 13:10:29 10° WNW 13:13:58 60° N 13:17:24 10° E
Cosmos 1302 Rocket 4.1 13:12:06 10° NNW 13:17:21 87° ENE 13:22:36 10° SSE
VEP-3 3.6 13:09:57 10° W 13:17:23 33° SSW 13:22:16 10° SE
Delta 2 Rocket 4.4 13:12:32 10° WSW 13:18:15 47° S 13:24:26 10° ESE
